Volver al catálogo

TK-2

ActivoCienciaSSO
NORAD 52150·PAYLOAD·🇨🇳 China

Lanzado Mar 29, 2022 desde Taiyuan Satellite Launch Center

Loading…

Próximos Pases (próximas 24 horas)

TLE

ActualizadoSource: Space-Track

Época: Sep 14, 2026, 15:06 UTC

1 52150U 22031A   26257.62938775  .00002683  00000-0  19864-3 0  9990
2 52150  97.8280  94.8323 0015255 179.9180 180.2051 15.03952131243906

Sigue TK-2 en tiempo real con AllMySat

Download on the App Store